GW6748 Weather Reports


time (UTC)temp
C
wind
direction
speed
KPH
gust
KPH
rain 1hr
cm
rain 24hr
cm
rain mn
cm
humidity
%
barometer
mb
20260505230543 12 324 0.0 8.0 0.00 0.00 0.00 90 1005.6
20260505230055 13 324 3.2 12.9 0.00 0.00 0.00 92 1005.5
20260505225542 12 324 6.4 12.9 0.00 0.00 0.00 92 1005.9
20260505225041 12 324 6.4 9.7 0.00 0.00 0.00 95 1005.9
20260505224552 11 324 6.4 9.7 0.00 0.00 0.00 96 1006.1
20260505224045 11 324 4.8 6.4 0.00 0.00 0.00 96 1006.2
20260505223543 10 324 0.0 1.6 0.00 0.00 0.00 92 1006.3
20260505223102 10 0 0.0 1.6 0.00 0.00 0.00 92 1006.4
20260505222543 10 324 0.0 1.6 0.00 0.00 0.00 93 1006.4
20260505222045 10 324 0.0 3.2 0.00 0.00 0.00 92 1006.4
20260505221557 11 324 0.0 3.2 0.00 0.00 0.00 89 1006.4
20260505221043 11 324 1.6 6.4 0.00 0.00 0.00 88 1006.2
20260505220541 12 324 3.2 6.4 0.00 0.00 0.00 90 1006.0
20260505220058 12 324 4.8 6.4 0.00 0.00 0.00 91 1005.8
20260505215543 12 324 3.2 9.7 0.00 0.00 0.00 91 1005.7
20260505215043 12 324 3.2 14.5 0.00 0.00 0.00 85 1005.7
20260505214614 12 324 9.7 19.3 0.00 0.00 0.00 86 1005.6
20260505214041 12 324 11.3 19.3 0.00 0.00 0.00 84 1005.8
20260505213543 12 324 11.3 24.1 0.00 0.00 0.00 85 1005.8
20260505213101 12 324 14.5 24.1 0.00 0.00 0.00 85 1005.5
20260505212542 12 324 16.1 24.1 0.00 0.00 0.00 85 1005.2
20260505212043 12 326 12.9 19.3 0.00 0.00 0.00 86 1004.9
20260505211550 13 327 8.0 17.7 0.00 0.00 0.00 85 1004.9
20260505211042 13 327 8.0 11.3 0.00 0.00 0.00 81 1004.6
20260505210541 15 327 4.8 11.3 0.00 0.00 0.00 84 1003.8
20260505210055 15 327 4.8 14.5 0.00 0.00 0.00 83 1003.5
20260505205542 15 327 6.4 29.0 0.00 0.00 0.00 80 1003.0
20260505205042 16 327 12.9 29.0 0.00 0.00 0.00 73 1002.8
20260505204553 17 318 11.3 20.9 0.00 0.00 0.00 54 1002.5
20260505204041 17 318 8.0 19.3 0.00 0.00 0.00 54 1001.8
20260505203541 17 318 8.0 19.3 0.00 0.00 0.00 54 1001.8
20260505203056 18 318 12.9 19.3 0.00 0.00 0.00 53 1001.6
20260505202543 17 318 9.7 24.1 0.00 0.00 0.00 54 1001.8
20260505202041 17 318 9.7 24.1 0.00 0.00 0.00 53 1001.8
20260505201600 18 318 17.7 24.1 0.00 0.00 0.00 52 1001.8
20260505201043 17 319 12.9 25.7 0.00 0.00 0.00 53 1001.8
20260505200542 17 319 14.5 25.7 0.00 0.00 0.00 54 1001.8
20260505195543 18 319 12.9 33.8 0.00 0.00 0.00 51 1001.8
20260505195041 19 317 19.3 33.8 0.00 0.00 0.00 49 1001.5
20260505194556 18 318 22.5 30.6 0.00 0.00 0.00 51 1001.8
20260505194044 17 321 19.3 30.6 0.00 0.00 0.00 53 1001.9
20260505193545 17 321 19.3 30.6 0.00 0.00 0.00 55 1001.9
20260505193052 16 321 14.5 24.1 0.00 0.00 0.00 57 1001.9
20260505192541 16 321 9.7 24.1 0.00 0.00 0.00 56 1002.0
20260505192041 17 321 16.1 30.6 0.00 0.00 0.00 54 1001.9
20260505191551 18 321 19.3 30.6 0.00 0.00 0.00 52 1001.9
20260505191043 18 320 24.1 35.4 0.00 0.00 0.00 51 1002.2
20260505190542 18 319 24.1 35.4 0.00 0.00 0.00 51 1002.0
20260505190053 18 319 22.5 35.4 0.00 0.00 0.00 53 1002.2
20260505185543 17 321 12.9 25.7 0.00 0.00 0.00 56 1002.3
20260505185041 17 320 14.5 22.5 0.00 0.00 0.00 56 1002.2
20260505184551 17 320 11.3 32.2 0.00 0.00 0.00 56 1002.4
20260505184042 17 320 14.5 32.2 0.00 0.00 0.00 55 1002.4
20260505183541 17 319 16.1 22.5 0.00 0.00 0.00 57 1002.4
20260505183104 16 320 11.3 20.9 0.00 0.00 0.00 59 1002.6
20260505182541 17 320 12.9 29.0 0.00 0.00 0.00 57 1002.6
20260505182041 17 320 19.3 29.0 0.00 0.00 0.00 55 1002.7
20260505181553 17 316 17.7 27.4 0.00 0.00 0.00 57 1002.5
20260505181046 17 320 14.5 27.4 0.00 0.00 0.00 57 1002.7
20260505180541 17 319 19.3 30.6 0.00 0.00 0.00 56 1002.6
20260505180059 17 319 17.7 30.6 0.00 0.00 0.00 58 1002.7
20260505175541 17 321 9.7 22.5 0.00 0.00 0.00 59 1002.7
20260505175043 17 321 14.5 22.5 0.00 0.00 0.00 61 1002.8
20260505174558 16 321 14.5 22.5 0.00 0.00 0.00 61 1002.9
20260505174042 16 321 14.5 30.6 0.00 0.00 0.00 61 1003.1
20260505173541 17 320 12.9 30.6 0.00 0.00 0.00 60 1003.4
20260505173050 17 320 22.5 30.6 0.00 0.00 0.00 58 1003.3
20260505172544 17 321 17.7 29.0 0.00 0.00 0.00 59 1003.4
20260505172046 17 320 16.1 22.5 0.00 0.00 0.00 60 1003.5
20260505171551 16 320 12.9 29.0 0.00 0.00 0.00 61 1003.5
20260505171043 17 320 12.9 29.0 0.00 0.00 0.00 58 1003.9
20260505170544 17 320 19.3 40.2 0.00 0.00 0.00 59 1004.0
20260505170050 17 319 22.5 40.2 0.00 0.00 0.00 58 1004.1
20260505165544 17 318 17.7 30.6 0.00 0.00 0.00 60 1004.0
20260505165043 16 319 8.0 24.1 0.00 0.00 0.00 62 1004.1
20260505164600 17 319 17.7 25.7 0.00 0.00 0.00 62 1004.3
20260505164043 16 319 11.3 25.7 0.00 0.00 0.00 64 1004.2
20260505163545 15 327 8.0 17.7 0.00 0.00 0.00 66 1004.5
20260505163050 15 327 11.3 29.0 0.00 0.00 0.00 65 1004.7
20260505162543 15 327 12.9 29.0 0.00 0.00 0.00 65 1004.7
20260505162043 15 327 9.7 27.4 0.00 0.00 0.00 70 1004.7
20260505161602 14 327 12.9 17.7 0.00 0.00 0.00 69 1004.8
20260505161043 13 326 6.4 11.3 0.00 0.00 0.00 70 1004.9
20260505160543 14 327 8.0 17.7 0.00 0.00 0.00 69 1005.0
20260505153100 15 322 14.5 24.1 0.00 0.00 0.00 65 1005.0
20260505152544 15 321 12.9 17.7 0.00 0.00 0.00 68 1005.0
20260505152045 14 323 6.4 14.5 0.00 0.00 0.00 69 1005.3
20260505151553 14 323 8.0 22.5 0.00 0.00 0.00 69 1005.3
20260505151044 14 323 16.1 22.5 0.00 0.00 0.00 69 1005.4
20260505150542 13 322 4.8 14.5 0.00 0.00 0.00 72 1005.4
20260505140545 13 321 0.0 3.2 0.00 0.00 0.00 70 1005.8
20260505140110 13 0 0.0 3.2 0.00 0.00 0.00 70 1005.7
20260505124550 6 0 0.0 0.0 0.00 0.00 0.00 91 1005.9
20260505124043 6 321 0.0 0.0 0.00 0.00 0.00 92 1005.8
20260505123544 6 0 0.0 0.0 0.00 0.00 0.00 93 1005.8
20260505123055 5 0 0.0 0.0 0.00 0.00 0.00 93 1005.9
20260505122544 5 0 0.0 0.0 0.00 0.00 0.00 93 1006.1
20260505122045 5 0 0.0 0.0 0.00 0.00 0.00 95 1005.9
20260505121552 5 0 0.0 0.0 0.00 0.00 0.00 96 1006.2
20260505121045 5 0 0.0 0.0 0.00 0.00 0.00 96 1006.1
20260505120544 5 0 0.0 0.0 0.00 0.00 0.00 96 1006.2
20260505120055 4 0 0.0 0.0 0.00 0.00 0.00 96 1006.1
20260505115544 4 0 0.0 0.0 0.00 0.00 0.00 96 1006.5
20260505115046 4 0 0.0 0.0 0.00 0.00 0.00 96 1006.5
20260505114558 3 0 0.0 1.6 0.00 0.00 0.00 96 1006.6
20260505114044 3 0 0.0 1.6 0.00 0.00 0.00 96 1006.6
20260505113547 3 0 0.0 1.6 0.00 0.00 0.00 97 1006.8
20260505113107 3 321 0.0 1.6 0.00 0.00 0.00 97 1006.7
20260505112544 3 0 0.0 0.0 0.00 0.00 0.00 97 1006.6
20260505112044 2 0 0.0 0.0 0.00 0.00 0.00 97 1006.6
20260505111553 2 0 0.0 0.0 0.00 0.00 0.00 97 1006.7
20260505111045 2 0 0.0 0.0 0.00 0.00 0.00 97 1006.6
20260505110542 2 0 0.0 0.0 0.00 0.00 0.00 97 1006.4
20260505102044 0 0 0.0 0.0 0.00 0.00 0.00 96 1006.6
20260505101552 0 0 0.0 0.0 0.00 0.00 0.00 95 1006.6
20260505101044 0 0 0.0 0.0 0.00 0.00 0.00 95 1006.4
20260505100544 0 0 0.0 0.0 0.00 0.00 0.00 95 1006.5
20260505100053 0 0 0.0 0.0 0.00 0.00 0.00 95 1006.5
20260505095544 0 0 0.0 0.0 0.00 0.00 0.00 95 1006.5
20260505095046 0 0 0.0 0.0 0.00 0.00 0.00 95 1006.5
20260505094552 0 0 0.0 0.0 0.00 0.00 0.00 95 1006.6
20260505094044 0 0 0.0 0.0 0.00 0.00 0.00 95 1006.5
20260505093541 0 0 0.0 0.0 0.00 0.00 0.00 95 1006.5
20260505093057 0 0 0.0 0.0 0.00 0.00 0.00 95 1006.5
20260505092542 0 0 0.0 0.0 0.00 0.00 0.00 95 1006.6
20260505092044 0 0 0.0 0.0 0.00 0.00 0.00 95 1006.6
20260505091602 0 0 0.0 0.0 0.00 0.00 0.00 95 1006.7
20260505091048 0 0 0.0 0.0 0.00 0.00 0.00 95 1006.8
20260505090545 0 0 0.0 0.0 0.00 0.00 0.00 95 1006.8
20260505090052 0 0 0.0 0.0 0.00 0.00 0.00 95 1006.7
20260505085544 0 0 0.0 0.0 0.00 0.00 0.00 95 1006.7
20260505085044 0 0 0.0 0.0 0.00 0.00 0.00 95 1006.7
20260505084555 0 0 0.0 0.0 0.00 0.00 0.00 95 1006.8
20260505084043 0 0 0.0 0.0 0.00 0.00 0.00 95 1006.8
20260505083543 0 0 0.0 0.0 0.00 0.00 0.00 95 1006.7
20260505083100 0 0 0.0 0.0 0.00 0.00 0.00 95 1006.8
20260505082543 0 0 0.0 0.0 0.00 0.00 0.00 95 1006.8
20260505082042 0 0 0.0 0.0 0.00 0.00 0.00 95 1006.8
20260505081555 0 0 0.0 0.0 0.00 0.00 0.00 95 1006.9
20260505081044 0 0 0.0 0.0 0.00 0.00 0.00 95 1006.9
20260505080545 0 0 0.0 0.0 0.00 0.00 0.00 95 1007.1
20260505080053 0 0 0.0 0.0 0.00 0.00 0.00 95 1007.0
20260505075544 0 0 0.0 0.0 0.00 0.00 0.00 95 1007.1
20260505075044 0 0 0.0 0.0 0.00 0.00 0.00 95 1007.1
20260505074553 0 0 0.0 0.0 0.00 0.00 0.00 95 1007.0
20260505074044 0 0 0.0 0.0 0.00 0.00 0.00 95 1007.1
20260505073544 0 0 0.0 0.0 0.00 0.00 0.00 95 1007.1
20260505073057 0 0 0.0 0.0 0.00 0.00 0.00 95 1007.0
20260505072548 0 0 0.0 0.0 0.00 0.00 0.00 94 1007.0
20260505072046 0 0 0.0 0.0 0.00 0.00 0.00 94 1007.1
20260505071558 0 0 0.0 0.0 0.00 0.00 0.00 94 1007.1
20260505071045 0 0 0.0 0.0 0.00 0.00 0.00 95 1007.0
20260505070547 0 0 0.0 0.0 0.00 0.00 0.00 95 1007.0
20260505070100 0 0 0.0 0.0 0.00 0.00 0.00 94 1007.0
20260505065547 0 0 0.0 0.0 0.00 0.00 0.00 94 1007.0
20260505065045 0 0 0.0 0.0 0.00 0.00 0.00 95 1007.0
20260505064553 0 0 0.0 0.0 0.00 0.00 0.00 94 1007.1
20260505064047 0 0 0.0 0.0 0.00 0.00 0.00 94 1007.1
20260505063544 0 0 0.0 0.0 0.00 0.00 0.00 94 1007.1
20260505063053 0 0 0.0 0.0 0.00 0.00 0.00 94 1007.0
20260505062544 1 321 0.0 0.0 0.00 0.00 0.00 94 1007.1
20260505062047 1 0 0.0 0.0 0.00 0.00 0.00 94 1007.0
20260505061549 1 0 0.0 0.0 0.00 0.00 0.00 94 1007.0
20260505061044 1 0 0.0 0.0 0.00 0.00 0.00 94 1007.0
20260505060544 1 0 0.0 0.0 0.00 0.00 0.00 94 1007.0
20260505060052 1 0 0.0 0.0 0.00 0.00 0.00 94 1006.9
20260505055546 1 0 0.0 0.0 0.00 0.00 0.00 94 1007.0
20260505055044 1 0 0.0 0.0 0.00 0.00 0.00 94 1007.0
20260505054548 1 0 0.0 0.0 0.00 0.00 0.00 94 1006.9
20260505054043 1 0 0.0 0.0 0.00 0.00 0.00 94 1007.0
20260505053544 1 0 0.0 0.0 0.00 0.00 0.00 94 1007.0
20260505053055 1 0 0.0 0.0 0.00 0.00 0.00 94 1007.0
20260505052543 1 0 0.0 0.0 0.00 0.00 0.00 94 1007.0
20260505052044 1 0 0.0 0.0 0.00 0.00 0.00 94 1007.0
20260505051602 1 0 0.0 0.0 0.00 0.00 0.00 94 1006.9
20260505051045 1 0 0.0 0.0 0.00 0.00 0.00 94 1007.0
20260505050546 1 0 0.0 0.0 0.00 0.00 0.00 94 1006.9
20260505050104 2 0 0.0 0.0 0.00 0.00 0.00 94 1006.9
20260505041557 2 0 0.0 0.0 0.00 0.00 0.00 93 1006.7
20260505041043 2 0 0.0 0.0 0.00 0.00 0.00 93 1006.7
20260505040544 2 0 0.0 0.0 0.00 0.00 0.00 93 1006.7
20260505040052 2 0 0.0 0.0 0.00 0.00 0.00 93 1006.7
20260505035541 2 0 0.0 0.0 0.00 0.00 0.00 93 1006.6
20260505035047 2 0 0.0 0.0 0.00 0.00 0.00 93 1006.6
20260505034553 3 0 0.0 0.0 0.00 0.00 0.00 93 1006.6
20260505034044 3 0 0.0 0.0 0.00 0.00 0.00 93 1006.6
20260505033544 3 0 0.0 0.0 0.00 0.00 0.00 93 1006.6
20260505033050 3 0 0.0 0.0 0.00 0.00 0.00 92 1006.5
20260505032544 3 0 0.0 0.0 0.00 0.00 0.00 92 1006.5
20260505032048 3 0 0.0 0.0 0.00 0.00 0.00 92 1006.6
20260505031556 3 0 0.0 0.0 0.00 0.00 0.00 92 1006.7
20260505031044 3 0 0.0 0.0 0.00 0.00 0.00 92 1006.7
20260505030547 3 0 0.0 0.0 0.00 0.00 0.00 92 1006.7
20260505030051 4 0 0.0 0.0 0.00 0.00 0.00 92 1006.7
20260505025544 4 0 0.0 0.0 0.00 0.00 0.00 92 1006.6
20260505025043 4 0 0.0 0.0 0.00 0.00 0.00 92 1006.7
20260505024601 4 0 0.0 0.0 0.00 0.00 0.00 92 1006.8
20260505024041 4 0 0.0 0.0 0.00 0.00 0.00 92 1006.8
20260505023543 4 0 0.0 0.0 0.00 0.00 0.00 92 1006.7
20260505023054 5 0 0.0 0.0 0.00 0.00 0.00 92 1006.8
20260505022544 5 0 0.0 0.0 0.00 0.00 0.00 92 1006.7
20260505022044 5 0 0.0 0.0 0.00 0.00 0.00 92 1006.7
20260505021549 5 0 0.0 0.0 0.00 0.00 0.00 92 1006.7
20260505021044 5 0 0.0 0.0 0.00 0.00 0.00 92 1006.8
20260505020544 5 0 0.0 0.0 0.00 0.00 0.00 92 1006.9
20260505020051 5 0 0.0 0.0 0.00 0.00 0.00 92 1006.8
20260505015544 5 0 0.0 0.0 0.00 0.00 0.00 91 1006.9
20260505015045 5 0 0.0 0.0 0.00 0.00 0.00 91 1006.9
20260505014549 5 0 0.0 0.0 0.00 0.00 0.00 91 1006.9
20260505014046 5 0 0.0 0.0 0.00 0.00 0.00 91 1006.9
20260505013541 5 0 0.0 0.0 0.00 0.00 0.00 91 1007.0
20260505013107 5 0 0.0 0.0 0.00 0.00 0.00 91 1006.9
20260505012546 5 0 0.0 0.0 0.00 0.00 0.00 91 1006.8
20260505012044 5 0 0.0 0.0 0.00 0.00 0.00 91 1006.8
20260505011551 5 0 0.0 0.0 0.00 0.00 0.00 91 1006.7
20260505011044 6 0 0.0 0.0 0.00 0.00 0.00 91 1006.7
20260505010544 6 0 0.0 0.0 0.00 0.00 0.00 91 1006.5
20260505010100 6 0 0.0 0.0 0.00 0.00 0.00 90 1006.4
20260505005544 6 0 0.0 0.0 0.00 0.00 0.00 90 1006.4
20260505005044 6 0 0.0 0.0 0.00 0.00 0.00 90 1006.4
20260505004549 6 0 0.0 0.0 0.00 0.00 0.00 90 1006.4
20260505004043 6 0 0.0 0.0 0.00 0.00 0.00 89 1006.2
20260505003546 6 0 0.0 0.0 0.00 0.00 0.00 89 1006.1
20260505003056 7 0 0.0 0.0 0.00 0.00 0.00 89 1006.1
20260505002543 7 0 0.0 0.0 0.00 0.00 0.00 89 1006.0
20260505002043 7 0 0.0 0.0 0.00 0.00 0.00 88 1005.9
20260505001552 7 0 0.0 0.0 0.00 0.00 0.00 88 1005.9
20260505001044 7 0 0.0 0.0 0.00 0.00 0.00 87 1005.8
20260505000546 7 0 0.0 0.0 0.00 0.00 0.00 86 1005.9
20260505000058 8 0 0.0 0.0 0.00 0.00 0.00 86 1005.6
20260504235545 8 0 0.0 0.0 0.00 0.00 0.00 85 1005.6
20260504235045 8 0 0.0 0.0 0.00 0.00 0.00 84 1005.8
20260504234548 8 0 0.0 0.0 0.00 0.00 0.00 83 1005.5
20260504234045 9 0 0.0 0.0 0.00 0.00 0.00 81 1005.4
20260504233544 10 0 0.0 0.0 0.00 0.00 0.00 80 1005.3
20260504233100 10 0 0.0 0.0 0.00 0.00 0.00 79 1005.2
20260504232549 10 0 0.0 0.0 0.00 0.00 0.00 79 1005.3
20260504232046 10 0 0.0 0.0 0.00 0.00 0.00 77 1005.2
20260504231548 11 0 0.0 0.0 0.00 0.00 0.00 76 1005.2
20260504231043 11 0 0.0 0.0 0.00 0.00 0.00 75 1005.1